Regional Weather Roundup
Issued by NWS

Home | Current Version | Previous Version | Text Only | Print | Product List | Glossary Off
Versions: 1 2 3 4 5 6 7 8 9 10 11 12 13 14 15 16 17 18 19 20 21 22 23 24 25 26 27 28 29 30 31 32 33 34 35 36 37 38 39 40 41 42 43 44 45 46 47 48 49 50

000
ASUS43 KIND 270309
RWRIN

WEATHER ROUNDUP FOR INDIANA
NATIONAL WEATHER SERVICE INDIANAPOLIS IN
1100 PM EDT THU MAR 26 2015

NOTE: "FAIR" INDICATES FEW OR NO CLOUDS BELOW 12,000 FEET WITH NO
SIGNIFICANT WEATHER AND/OR OBSTRUCTIONS TO VISIBILITY.

* - STATION DOES NOT REPORT WEATHER SUCH AS PRECIPITATION OR FOG.

+ - STATION NOT QUALITY CONTROLLED BY THE NATIONAL WEATHER SERVICE.
    USE DATA WITH CAUTION...ESPECIALLY DEWPOINT AND RELATIVE
    HUMIDITY OBSERVATIONS.

INZ001>003-010>013-019-020-270400-
NORTHWEST INDIANA

CITY           SKY/WX    TMP DP  RH WIND       PRES   REMARKS
GARY /AIRPORT/ CLOUDY    37  23  56 NE14      30.05S
KNOX *+          N/A     32  18  55 N7        30.03R WCI  26
LA PORTE +     CLOUDY    35  28  75 N8        30.03S WCI  28
MICHIGAN CITY+ CLOUDY    32  25  74 N6        30.05R WCI  26
MONTICELLO +   PTCLDY    33  26  75 N8        30.02S WCI  26
RENSSELAER +   CLEAR     34  28  80 N5        30.04S WCI  30
VALPARAISO     CLOUDY    33  24  69 N6        30.04S WCI  28

$$

LMZ046-743>745-270400-
SOUTHERN LAKE MICHIGAN

STATION/POSITION TIME  TEMP WIND        PRES
                       AIR  DIR/SP/G
                 (UTC) (F)  (DEG/KT/KT) (MB)
BURNS HARBOR     0300   35   30/ 12/ 13 1017.9S
MICHIGAN CITY    0300   33  350/ 11/ 12   N/A

$$

INZ004-005-014>016-021>024-270400-
NORTH CENTRAL INDIANA

CITY           SKY/WX    TMP DP  RH WIND       PRES   REMARKS
GOSHEN         CLOUDY    33  24  69 NW9       30.00S WCI  25
LOGANSPORT +   CLOUDY    34  27  75 N9        30.02S WCI  26
PERU/GRISSOM   MOCLDY    35  24  65 N14       29.99R WCI  25
ROCHESTER +    PTCLDY    34  27  75 NW12      30.02R WCI  25
SOUTH BEND     CLOUDY    33  25  72 N7        30.03R WCI  27
WARSAW +       CLEAR     32  25  74 NW8       30.01S WCI  25

$$

INZ006>009-017-018-025>027-270400-
NORTHEAST INDIANA

CITY           SKY/WX    TMP DP  RH WIND       PRES   REMARKS
ANGOLA *+      CLOUDY    34  19  55 NW10      29.97S WCI  26
AUBURN +       MOCLDY    32  25  74 NW8       29.98S WCI  25
FORT WAYNE     PTCLDY    33  23  66 NW12      29.98S WCI  24
HUNTINGTON +   PTCLDY    33  21  61 N8        29.98S WCI  26

$$

INZ028-029-035-036-043>045-051>053-270400-
WEST CENTRAL INDIANA

CITY           SKY/WX    TMP DP  RH WIND       PRES   REMARKS
CRAWFORDSVL +  CLEAR     33  22  61 MISG      30.01S
GREENCASTLE +  CLEAR     36  23  60 N9        30.01R
LAFAYETTE      CLEAR     33  25  72 N8        30.02S WCI  26
TERRE HAUTE    CLEAR     39  28  64 N7        30.01S

$$

INZ030>032-037>040-046>048-054>057-064-065-270400-
CENTRAL INDIANA

CITY           SKY/WX    TMP DP  RH WIND       PRES   REMARKS
CP ATTERBURY + MOCLDY    32  32 100 CALM      30.00R
FISHERS *+     CLEAR     36  30  80 NW6       29.99
FRANKFORT +    CLEAR     34  28  79 NW8       30.02S WCI  27
GREENWOOD *+   CLEAR     37  27  65 NW5       30.00R
INDIANAPOLIS   PTCLDY    36  28  73 NW10      29.98R
-EAGLE CREEK   CLEAR     36  29  75 NW7       29.99R
KOKOMO *+        N/A     36  27  69 N15       30.00R
MARION +       PTCLDY    34  25  71 N5        29.99S WCI  30
MT COMFORT *+  CLEAR     36  21  55 NW9       29.99R
SHELBYVILLE    PTCLDY    38  29  70 NW6       29.98R
ZIONSVILLE +   CLEAR     36  26  66 NW10      29.99R

$$

INZ033-034-041-042-049-050-058-059-270400-
EAST CENTRAL INDIANA

CITY           SKY/WX    TMP DP  RH WIND       PRES   REMARKS
MUNCIE         MOCLDY    35  27  72 N7        29.98R WCI  29

$$

INZ060-061-067>069-081>083-085>088-270400-
SOUTHWEST INDIANA

CITY           SKY/WX    TMP DP  RH WIND       PRES   REMARKS
EVANSVILLE     CLEAR     39  32  76 CALM      30.04S
HUNTINGBURG *+ PTCLDY    37  30  75 NW6       30.03S
WASHINGTON +   CLEAR     38  32  78 NW5       30.02S

$$

INZ062-063-066-070>080-084-089>092-270400-
SOUTH CENTRAL AND SOUTHEAST INDIANA

CITY           SKY/WX    TMP DP  RH WIND       PRES   REMARKS
BEDFORD +      CLOUDY    37  32  81 CALM      30.01R
BLOOMINGTON    CLOUDY    40  30  67 N5        30.00R
NORTH VERNON + MOCLDY    39  34  81 W3        29.99S
SEYMOUR +      CLEAR     36  32  87 W3        30.01R

$$




USA.gov is the U.S. government's official web portal to all federal, state and local government web resources and services.